Location: Csohesd
(46.2500°N, 22.6167°E)
Time: 12:15:46
(UTC+00:00)

SL-19 R/B - Visible Passes

Search period start: 29 May 2022 00:00
Search period end: 08 June 2022 00:00
Orbit: 874 x 1208 km, 100.6° (Epoch: 29 May)

Date Brightness Start Highest point End Pass type
(mag) Time Alt. Az. Time Alt. Az. Time Alt. Az.
29 May 8.1 02:07:12 10° ENE 02:09:18 12° NE 02:11:26 10° NNE visible
29 May 7.7 20:04:22 10° NNW 20:08:14 16° NW 20:12:10 10° W visible
30 May 6.8 19:02:44 10° N 19:08:56 34° WNW 19:15:18 10° WSW visible
31 May 7.6 19:47:42 10° N 19:52:28 20° NW 19:57:20 10° W visible
01 Jun 6.4 18:46:25 10° N 18:53:02 43° WNW 18:59:47 10° SW visible
01 Jun 8.1 20:34:00 10° NNW 20:35:42 11° NW 20:37:25 10° NW visible
02 Jun 7.4 19:31:12 10° N 19:36:40 25° NW 19:42:14 10° WSW visible
03 Jun 7.8 20:16:39 10° NNW 20:20:00 14° NW 20:23:23 10° WNW visible
04 Jun 7.0 19:14:47 10° N 19:20:49 30° WNW 19:26:56 10° WSW visible
05 Jun 8.2 02:03:13 10° ENE 02:05:12 12° NE 02:07:14 10° NNE visible
05 Jun 7.7 19:59:54 10° N 20:04:16 18° NW 20:08:42 10° W visible
06 Jun 6.7 18:58:28 10° N 19:04:57 38° WNW 19:11:28 10° WSW visible
07 Jun 7.6 19:43:21 10° N 19:48:30 22° NW 19:53:42 10° W visible
